Location: Orange Harbor Mobile Home Park
(26.6923°N, 81.7937°W)
Time: 07:34:51
(UTC+00:00)

Ariane Rocket - Pass Details

Date: 19 September 2020
Orbit: 760 x 770 km, 98.7° (Epoch: 30 October)

Event Time Altitude Azimuth Distance (km) Brightness Sun altitude
Exits shadow 00:50:35 32° 70° (ENE) 1,287 3.7 -19.2°
Drops below altitude 10° 00:54:57 10° 10° (N) 2,300 5.5 -20.2°
Sets 00:57:28 0° 1° (N) 3,230 6.4 -20.8°
